Location: Croisilles
(50.1998°N, 2.8793°E)
Time: 12:47:37
(UTC+00:00)

Meteor 2-5 Rocket - Pass Details

Date: 21 January 2021
Orbit: 833 x 911 km, 81.2° (Epoch: 26 February)

Event Time Altitude Azimuth Distance (km) Brightness Sun altitude
Rises 17:01:04 0° 181° (S) 3,396 7.2 -6.1°
Reaches altitude 10° 17:03:30 10° 179° (S) 2,457 6.4 -6.5°
Maximum altitude 17:09:00 67° 98° (E) 908 3.7 -7.3°
Drops below altitude 10° 17:14:30 10° 17° (NNE) 2,456 5.8 -8.1°
Sets 17:16:55 0° 15° (NNE) 3,395 6.5 -8.5°
